This is the latest recevied weather packets stored in our database for station/object N3TTT-13. If no packets are shown the sender has not sent any weather packets the latest 1 day(s).
| Time | Temp. | Humidity | Pressure | Rain* | Wind** | Luminosity | Snow |
|---|---|---|---|---|---|---|---|
| 1836274725 | 19.44° C | 95% | 1018.5 hPa | 0 mm | 0 m/s | 0 W/m² | - |
| 1836274578 | 20° C | 95% | 1018.6 hPa | 0 mm | 0 m/s | 0 W/m² | - |
| 1836274424 | 19.44° C | 95% | 1018.4 hPa | 0 mm | 0 m/s | 0 W/m² | - |
| 1836274278 | 20° C | 95% | 1018.6 hPa | 0 mm | 0 m/s | 0 W/m² | - |
| 1836274122 | 19.44° C | 95% | 1018.3 hPa | 0 mm | 0 m/s | 0 W/m² | - |
| 1778094827 | 21.11° C | 77% | 1008.6 hPa | 0 mm | 0.45 m/s, 258° | 301 W/m² | - |
| 1778094524 | 21.11° C | 77% | 1009 hPa | 0 mm | 0.89 m/s, 192° | 241 W/m² | - |
| 1778094220 | 21.11° C | 77% | 1008.9 hPa | 0 mm | 1.34 m/s, 136° | 339 W/m² | - |
| 1778093917 | 21.11° C | 77% | 1008.9 hPa | 0 mm | 1.34 m/s, 137° | 270 W/m² | - |
| 1778093614 | 21.11° C | 78% | 1008.9 hPa | 0 mm | 0.89 m/s, 215° | 344 W/m² | - |
| 1778093311 | 21.11° C | 77% | 1009.3 hPa | 0 mm | 0.45 m/s, 224° | 384 W/m² | - |
| 1778093008 | 20.56° C | 78% | 1008.9 hPa | 0 mm | 1.34 m/s, 255° | 353 W/m² | - |
| 1778092706 | 20° C | 78% | 1009.2 hPa | 0 mm | 1.79 m/s, 258° | 289 W/m² | - |
| 1778092401 | 20.56° C | 79% | 1009.3 hPa | 0 mm | 0.45 m/s, 165° | 220 W/m² | - |
| 1778092098 | 20.56° C | 78% | 1009.3 hPa | 0 mm | 1.34 m/s, 142° | 214 W/m² | - |
| 1778091795 | 20.56° C | 78% | 1009.3 hPa | 0 mm | 1.79 m/s, 225° | 223 W/m² | - |
| 1778091493 | 20° C | 78% | 1009.1 hPa | 0 mm | 0.45 m/s, 169° | 291 W/m² | - |
| 1778091191 | 20° C | 78% | 1009.2 hPa | 0 mm | 3.13 m/s, 187° | 278 W/m² | - |
| 1778090888 | 20° C | 79% | 1009.4 hPa | 0 mm | 0.45 m/s, 200° | 276 W/m² | - |
| 1778090583 | 20° C | 78% | 1009.5 hPa | 0 mm | 2.68 m/s, 217° | 180 W/m² | - |
| 1778090280 | 20° C | 80% | 1009.7 hPa | 0 mm | 1.34 m/s, 303° | 248 W/m² | - |
| 1778089977 | 19.44° C | 80% | 1009.7 hPa | 0 mm | 1.34 m/s, 273° | 180 W/m² | - |
| 1778089674 | 20° C | 80% | 1009.7 hPa | 0 mm | 2.68 m/s, 170° | 191 W/m² | - |
| 1778089372 | 20° C | 81% | 1009.5 hPa | 0 mm | 0.45 m/s, 279° | 258 W/m² | - |
| 1778089069 | 19.44° C | 82% | 1009.4 hPa | 0 mm | 0.89 m/s, 272° | 336 W/m² | - |
* Rain latest hour (hover to see other rain measurements)
** Current wind speed in m/s (hover to see current wind gust speed)